Other Public Products
Issued by NWS Grand Forks, ND

Home | Current Version | Previous Version | Graphics & Text | Print | Product List | Glossary On
Versions: 1 2 3 4 5 6 7 8 9 10 11 12 13 14 15 16 17 18 19 20 21 22 23 24 25 26 27 28 29 30 31 32 33 34 35 36 37 38 39 40 41 42 43 44 45 46 47 48 49 50
000
FPUS83 KFGF 192310
OPUFGF
PRAIRIE TO PINES WEATHER ROUNDUP
NATIONAL WEATHER SERVICE EASTERN NORTH DAKOTA/GRAND FORKS ND
600 PM CDT SAT APR 19 2014

 **SATELLITE DATA USED TO AUGMENT SKY COVER AT AUTOMATED STATIONS**
 *****  WEATHER ACROSS EASTERN NORTH DAKOTA  *****

CITY           SKY/WX    TMP DP  RH WIND       PRES   REMARKS
GRAND FORKS    MOSUNNY   59  40  49 W22       29.90R
GRAND FORKS AF SUNNY     58  39  48 W22       29.91R
GRAND CITY NWS   N/A     59 N/A N/A NW13        N/A
BUXTON         NOT AVBL
DEVILS LAKE    PTSUNNY   52  36  54 W18       29.92R
FARGO          SUNNY     68  31  25 W16G22    29.90S
WAHPETON ARPT  CLEAR     66  27  22 W12G23    29.94S
$$

 *****  WEATHER ACROSS CENTRAL AND WESTERN NORTH DAKOTA  *****

CITY           SKY/WX    TMP DP  RH WIND       PRES   REMARKS
JAMESTOWN      SUNNY     65  32  29 NW16      29.90R
BISMARCK       SUNNY     64  34  32 NW13      29.94R
MINOT          SUNNY     55  32  41 W16G22    29.92R
MINOT AFB      SUNNY     53  35  49 NW20G29   29.91S
GARRISON         N/A     58  35  42 W16       29.93S
WILLISTON      MOSUNNY   60  33  36 W10       29.92S
DICKINSON      SUNNY     61  30  31 W13       29.92S
HETTINGER      SUNNY     63  25  23 W13       29.96F
$$

 *****  OTHER OBSERVATIONS NORTHEAST NORTH DAKOTA  *****

CITY           SKY/WX    TMP DP  RH WIND       PRES   REMARKS
WALHALLA         N/A     52  36  54 NW17G26   29.87R
LANGDON        FAIR      50  34  53 W29G36    29.87R
CAVALIER       FAIR      55  37  50 W21G26    29.88R
GRAFTON        FAIR      54  39  58 W21G31    29.89R
CANDO          CLOUDY    48  32  53 W24       29.91S
FORT TOTTEN      N/A     51  37  59 NW10      29.95S
ROLLA          FAIR      46  34  61 W18G30    29.90S
RUGBY          MOCLDY    48  36  61 W25       29.91S
 ***** THE ABOVE OBSERVATIONS ARE NON NWS ARE NOT QUALITY
        CONTROLLED AND MAY MIS-REPORT RAIN FOR SNOW...
$$

 *****  OTHER OBSERVATIONS SOUTHEAST NORTH DAKOTA *****

CITY           SKY/WX    TMP DP  RH WIND       PRES   REMARKS
COOPERSTOWN    FAIR      57  39  51 NW23      29.92R
VALLEY CITY    FAIR      66  32  28 W15G22    29.91R
OAKES          FAIR      66  30  26 W14G22    29.93S
GWINNER        CLEAR     70  32  24 W13G21    29.94R
SHEYENNE NWR     N/A     69  29  22 W10       29.95S
BUFFALO        NOT AVBL
WYNDMERE       NOT AVBL
 ***** THE ABOVE OBSERVATIONS ARE NON NWS ARE NOT QUALITY
       CONTROLLED AND MAY MIS-REPORT RAIN FOR SNOW...
$$

  *****  WEATHER ACROSS NORTHERN MINNESOTA  *****

CITY           SKY/WX    TMP DP  RH WIND       PRES   REMARKS
FLAG ISLAND    CLOUDY    52  36  54 SW20G33   29.80R
WARROAD        CLOUDY    54  43  66 W16G26    29.85R
ROSEAU         CLOUDY    55  43  62 W15G25    29.85R
HALLOCK        CLOUDY    55  39  54 W23       29.86R
THF RVR FALLS  MOSUNNY   57  39  51 W20       29.90R
HALSTAD          N/A     66  32  28 W16         N/A
FOSSTON        SUNNY     63  34  34 W17G24    29.91R
BAUDETTE       SUNNY     59  37  44 SW14G25   29.84R
WASKISH        SUNNY     54  36  50 SW15G22   29.88R
CROOKSTON      MOSUNNY   63  41  45 NW24      29.90R
$$
  *****  WEATHER ACROSS CENTRAL AND WEST MINNESOTA  *****

CITY           SKY/WX    TMP DP  RH WIND       PRES   REMARKS
BEMIDJI        SUNNY     64  29  27 W13G23    29.89S
PARK RAPIDS    SUNNY     64  27  24 W21       29.92R
WADENA         SUNNY     64  34  32 W13G24    29.94R
DETROIT LAKES  SUNNY     63  30  29 W15G21    29.94S
MOORHEAD       NOT AVBL
FERGUS FALLS   SUNNY     66  21  18 W16       29.90S
ELBOW LAKE     FAIR      67  31  26 W14G20    29.95R
MORRIS MN      MOSUNNY   70  30  23 W15       29.94S
STAPLES        MOSUNNY   66  28  24 W13       29.94R
WHEATON        SUNNY     72  34  25 W10       29.96R
$$
  *****  WEATHER ELSEWHERE ACROSS MINNESOTA  *****

CITY           SKY/WX    TMP DP  RH WIND       PRES   REMARKS
DULUTH         MOSUNNY   44  32  62 S7        29.99S
INTRNTL FALLS  SUNNY     61  30  31 SW17G33   29.84S
ELY            MOSUNNY   46  36  66 S12       29.95F
CLOQUET        MOSUNNY   48  34  57 SE6       29.98S
BRAINERD       SUNNY     69  42  37 SW9       29.93S
HIBBING        MOSUNNY   59  39  47 S13G21    29.92F
ALEXANDRIA     MOSUNNY   66  29  24 W12       29.96R
SAINT CLOUD    PTSUNNY   63  46  54 SW5       29.96F
MINNEAPOLIS    LGT RAIN  61  50  67 SE6       29.99S
$$

  *****  WEATHER ACROSS SOUTH DAKOTA  *****

CITY           SKY/WX    TMP DP  RH WIND       PRES   REMARKS
SIOUX FALLS    CLOUDY    70  29  21 NW6       29.98F
BROOKINGS      NOT AVBL
WATERTOWN      MOSUNNY   67  24  19 W10       29.98R
HURON          PTSUNNY   68  23  18 SW6       29.98S
SISSETON         N/A     69  30  23 NW12      29.94R
ABERDEEN       MOSUNNY   69  23  17 W14       29.95S
MITCHELL       PTSUNNY   68  22  17 VRB5      30.00F
PIERRE         PTSUNNY   68  22  17 W7        29.97F
MOBRIDGE       SUNNY     68  25  19 W12       29.93S
RAPID CITY     MOSUNNY   63  36  36 S21       29.98S
$$

  *****  SOME WEATHER IN NEARBY STATES *****

CITY           SKY/WX    TMP DP  RH WIND       PRES   REMARKS
GLASGOW MT     MOSUNNY   62  28  27 SW12      29.88F
GREAT FALLS MT MOSUNNY   64   9  11 SW22G28   29.81F
CHEYENNE WY    MOSUNNY   63  36  36 S14G20    30.03F
SCOTTSBLUFF NE MOSUNNY   65  32  29 SE13      30.00F
OMAHA NE       PTSUNNY   78  44  29 S15       29.95F
DES MOINES IA  PTSUNNY   76  43  30 S18       30.04S
DAVENPORT IA   PTSUNNY   72  34  24 S15       30.15S
CHICAGO IL     CLOUDY    63  36  36 E10       30.22F
EAU CLAIRE WI  LGT RAIN  63  41  44 S9        30.04R
LA CROSSE WI   PTSUNNY   70  37  29 S15       30.07F
$$

  *****  SOME NATIONAL WEATHER *****

CITY           SKY/WX    TMP DP  RH WIND       PRES   REMARKS
LA GUARDIA NY  MOCLDY    61  24  24 E7        30.25R
RALEIGH NC     CLOUDY    53  43  68 NE9       30.19S
ATLANTA GA     CLOUDY    60  54  80 NE13      30.12R
NEW ORLEANS LA MOSUNNY   77  53  43 NW5       30.08S
OKLAHOMA CITY  CLOUDY    75  49  39 S13       30.05F
ALBUQUERQUE NM PTSUNNY   61  41  47 VRB5      30.07F
SALT LAKE CITY CLOUDY    70  37  29 VRB5      29.97F
LOS ANGELES CA PTSUNNY   66  55  67 W15       29.99F
BOISE ID       SUNNY     75  22  13 SE12      29.84F
SEATTLE WA     CLOUDY    52  46  80 SW13G18   29.93R
$$

*** WEATHER ACROSS MANITOBA...SASKATCHEWAN AND ONTARIO ***
                ***ONTARIO***

CITY           SKY/WX    TMP DP  RH WIND       PRES   REMARKS
GERALDTON      LGT SNOW  30  30 100 SE9       30.15  VSB 1   WCI  22
THUNDER BAY    CLOUDY    34  32  93 E9        30.09F
SIOUX LOOKOUT  PTSUNNY   37  34  87 S12       29.86F
TORONTO        MOSUNNY   48  30  49 SE7       30.41F
BIG TROUT LK   NOT AVBL
PICKLE LAKE    LGT RAIN  32  30  93 S15G26    29.91F FOG     WCI  22
DRYDEN         SUNNY     43  36  75 S13G20    29.82F
KENORA         PTSUNNY   50  34  53 SW17G25   29.79R
$$
                *** MANITOBA***

CITY           SKY/WX    TMP DP  RH WIND       PRES   REMARKS
BRANDON        CLOUDY    41  34  75 W23G30    29.89R
DAUPHIN        CLOUDY    37  30  75 W21G33    29.82R
ISLAND LAKE    FLURRIES  34  34 100 SE12G18   29.70F
PILOT MOUND      N/A     45  34  65 W16G25      N/A
THE PAS        FLURRIES  32  32 100 N8        29.76R WCI  25
THOMPSON       LGT SNOW  32  32 100 E10G18    29.78F WCI  24
WINNIPEG       PTSUNNY   43  37  81 W17G24    29.85R
LYNN LAKE      CLOUDY    36  25  64 E13       29.82S
CHURCHILL      CLOUDY    27  21  80 E13       30.07F WCI  16
GILLAM         LGT SNOW  34  30  86 SE8       29.90
$$
                ***SASKATCHEWAN***

CITY           SKY/WX    TMP DP  RH WIND       PRES   REMARKS
ESTEVAN        MOSUNNY   46  36  66 NW9       29.94R
KINDERSLEY     PTSUNNY   50  32  50 W8        29.83F
LLOYDMINSTER   MOSUNNY   50  27  40 NW5       29.78F
PRINCE ALBERT  CLOUDY    37  28  70 W12       29.84R
REGINA         CLOUDY    39  34  81 W10G20    29.91R



USA.gov is the U.S. government's official web portal to all federal, state and local government web resources and services.